Flag for India Weather past 2 weeks in Kolkata, West Bengal, India

Now
81 °F

Fog.


Feels Like: 86 °F
Forecast: 83 / 104 °F
Wind: No wind

Location: Calcutta / Dum Dum


UV Index: 10 (Very high)

Visibility: 2 mi


Pressure: 29.68 "Hg

Humidity: 84%

Dew point: 75 °F

Location of KolkataLocation

Historic Weather in Kolkata

°F

Kolkata temperature yesterday

Maximum temperature yesterday: 102 °F (at 12:20 PM)
Minimum temperature yesterday: 79 °F (at 5:50 AM)
Average temperature yesterday: 90 °F

Past Weeks' High & Low Weather Summary

 TemperatureHumidityPressure
High102 °F (Apr 16, 12:20 PM)94% (Apr 3, 4:20 AM)29.89 "Hg (Apr 3, 4:20 AM)
Low75 °F (Apr 5, 4:20 AM)19% (Apr 2, 1:20 PM)29.62 "Hg (Apr 2, 4:50 PM)
Average87 °F63%29.75 "Hg
* Reported Apr 2 4:50 AM — Apr 17 5:20 AM, Kolkata, Weather by CustomWeather, © 2014

Note: Actual official high and low records may vary slightly from our data, if they occured in-between our weather recording intervals... More about our weather records

Advertising

Historic Weather Conditions — Data for Previous 24 hours

 ConditionsComfort  
Time TempWeatherWind HumidityBarometerVisibility
5:20 AM
Apr 17
82 °FHaze.No wind79%29.68 "Hg1 mi
4:50 AM82 °FHaze.5 mph79%29.68 "Hg2 mi
4:20 AM82 °FHaze.5 mph79%29.68 "Hg2 mi
3:50 AM82 °FHaze.5 mph79%29.65 "Hg2 mi
3:20 AM82 °FHaze.6 mph79%29.65 "Hg2 mi
2:50 AM82 °FPassing clouds.3 mph79%29.65 "Hg2 mi
2:20 AM82 °FPassing clouds.5 mph79%29.65 "Hg2 mi
1:50 AM82 °FPassing clouds.9 mph79%29.65 "Hg2 mi
1:20 AM84 °FPassing clouds.13 mph74%29.68 "Hg2 mi
12:50 AM84 °FPassing clouds.12 mph70%29.68 "Hg2 mi
12:20 AM84 °FPassing clouds.7 mph70%29.71 "Hg2 mi
11:50 PM
Apr 16
84 °FPassing clouds.6 mph70%29.71 "Hg2 mi
11:20 PM86 °FPassing clouds.8 mph66%29.71 "Hg2 mi
10:20 PM88 °FPassing clouds.6 mph59%29.71 "Hg2 mi
9:50 PM88 °FPassing clouds.5 mph59%29.71 "Hg2 mi
9:20 PM88 °FPassing clouds.5 mph59%29.71 "Hg2 mi
8:50 PM88 °FPassing clouds.9 mph59%29.71 "Hg2 mi
8:20 PM90 °FPassing clouds.12 mph52%29.68 "Hg2 mi
7:50 PM90 °FPassing clouds.14 mph52%29.65 "Hg2 mi
7:20 PM90 °FPassing clouds.12 mph49%29.65 "Hg2 mi
6:50 PM93 °FPassing clouds.12 mph41%29.65 "Hg2 mi
6:20 PM93 °FHaze.12 mph41%29.65 "Hg2 mi
5:50 PM93 °FHaze.12 mph44%29.62 "Hg2 mi
5:20 PM95 °FHaze.13 mph39%29.62 "Hg2 mi
4:50 PM97 °FHaze.15 mph37%29.65 "Hg2 mi
4:20 PM97 °FHaze.10 mph37%29.62 "Hg2 mi
3:50 PM99 °FHaze.13 mph35%29.62 "Hg2 mi
3:20 PM100 °FHaze.13 mph33%29.65 "Hg2 mi
2:50 PM100 °FHaze.13 mph33%29.65 "Hg2 mi
2:20 PM100 °FHaze.13 mph33%29.68 "Hg2 mi
1:50 PM100 °FHaze.12 mph35%29.68 "Hg2 mi
1:20 PM102 °FHaze.12 mph35%29.71 "Hg2 mi
12:50 PM102 °FHaze.9 mph37%29.71 "Hg2 mi
12:20 PM102 °FHaze.9 mph37%29.74 "Hg2 mi
11:50 AM100 °FHaze.10 mph40%29.77 "Hg2 mi
11:20 AM99 °FHaze.9 mph42%29.77 "Hg2 mi
10:50 AM97 °FHaze.9 mph44%29.80 "Hg2 mi
10:20 AM95 °FHaze.7 mph47%29.80 "Hg2 mi
9:50 AM93 °FHaze.7 mph53%29.80 "Hg2 mi
9:20 AM91 °FHaze.7 mph56%29.80 "Hg2 mi
8:20 AM88 °FHaze.7 mph66%29.83 "Hg2 mi
7:50 AM86 °FHaze.7 mph70%29.80 "Hg1 mi
7:20 AM82 °FHaze.8 mph79%29.80 "Hg1 mi
6:50 AM81 °FFog.No wind79%29.80 "Hg1 mi
6:20 AM79 °FFog.No wind84%29.80 "Hg1 mi
Weather by CustomWeather, © 2014

See weather overview